星链-4743 (STARLINK-4743 )

导读

STARLINK-4743是美国太空探索技术公司星链星座的成员,于2022年9月11日发射入轨。星链星座旨在构建全球卫星互联网,为全球提供高速宽带服务,该卫星承担着星座组网运营任务,属于低轨通信卫星,参与推进星链项目的全球覆盖与服务能力建设。

Basic Information
目录编号:
53787
目录名称:
STARLINK-4743
国际标识:
2022-111Q
轨道中心:
EARTH
卫星名称:
星链-4743
卫星全名:
星链-4743 (STARLINK-4743 )
卫星状态:
在轨 (已飞行1375 天)
发射日期:
2022-09-11 UTC
国别 :
美国 (US)
星等 :
--
Orbit Information
数据来源 国际轨道数据 AOE轨道数据
星历时间 2026-06-17T02:04:40+0800
15小时前
查看轨道信息
2026-06-16T07:00:00+0800
1天前
查看轨道信息
半长轴 6917.91km 6917.904km
偏心率 0.0001009 0.0001155
轨道倾角 53.160° 53.159°
近地点辐角 74.584° 81.819°
升交点赤经 189.153° 192.727°
平近点角 285.526° 278.187°
近地点 539.074km 538.967km
远地点 540.472km 540.567km
周期 95.438分钟 95.438分钟
每日圈数 15.088305 15.088326
Detailed Information
固有亮度:
5
最大亮度:
2.5
卫星平台:
Starlink v1.5
覆盖范围:
全球
运营商:
太空探索技术公司
运营商所在国:
美国
制造商(研发单位):
太空探索技术公司
制造商所在国:
美国
使用方式:
暂无
Satellite Introduction
星链(Starlink)计划是由太空探索技术公司(SpaceX)提出的一个巨型低轨卫星互联网星座项目,计划在2019年至2024年间在太空搭建由约1.2万颗卫星组成的“星链”网络,其中1584颗将部署在地球上空550千米处的近地轨道,并从2020年开始工作。该卫星仍在工作。
2D Orbit Map
3D Orbit Map
Orbit Altitude Analysis Chart
Orbit Inclination Analysis Chart
Orbit Comprehensive Analysis Chart
View Comprehensive Chart